,,PA_Meas_PMT16A,,PR_Meas_QMR101_102,,RH_Meas_QMH101,,SR_Meas_QMS101,,TA_Meas_QMH101,,GenWind,,GenWind,
time,status,PA,status,PR,status,RH,status,SR,status,TA,status,DirAvg,status,SpdAvg,
2015-04-22, 07:08:04,VALID,917.781,VALID,0,VALID,98.6089,VALID,72.093,VALID,19.9773,VALID,162,VALID,0,
2015-04-22, 07:09:04,VALID,917.788,VALID,0,VALID,98.6165,VALID,71.8781,VALID,19.9968,VALID,152,VALID,0,
2015-04-22, 07:10:04,VALID,917.777,VALID,0,VALID,98.6241,VALID,72.6302,VALID,19.9953,VALID,152,VALID,0,
2015-04-22, 07:11:04,VALID,917.83,VALID,0,VALID,98.6089,VALID,74.1344,VALID,20.0343,VALID,152,VALID,0,
2015-04-22, 07:12:04,VALID,917.821,VALID,0,VALID,98.6241,VALID,76.6055,VALID,20.0343,VALID,152,VALID,0,
2015-04-22, 07:13:04,VALID,917.797,VALID,0,VALID,98.6165,VALID,79.2916,VALID,20.0928,VALID,153,VALID,0,
2015-04-22, 07:14:04,VALID,917.812,VALID,0,VALID,98.6013,VALID,81.8702,VALID,20.0928,VALID,154,VALID,0,
2015-04-22, 07:15:04,VALID,917.799,VALID,0,VALID,98.5936,VALID,84.2339,VALID,20.1123,VALID,152,VALID,0,
2015-04-22, 07:16:04,VALID,917.838,VALID,0,VALID,98.5936,VALID,86.3827,VALID,20.1123,VALID,167,VALID,0,
2015-04-22, 07:17:04,VALID,917.846,VALID,0,VALID,98.586,VALID,88.7464,VALID,20.1318,VALID,167,VALID,0,
2015-04-22, 07:18:04,VALID,917.854,VALID,0,VALID,98.5784,VALID,91.0027,VALID,20.1888,VALID,167,VALID,0,
2015-04-22, 07:19:04,VALID,917.857,VALID,0,VALID,98.5708,VALID,93.2589,VALID,20.2278,VALID,167,VALID,0,
2015-04-22, 07:20:04,VALID,917.899,VALID,0,VALID,98.5631,VALID,94.978,VALID,20.3058,VALID,168,VALID,0,
2015-04-22, 07:21:04,VALID,917.907,VALID,0,VALID,98.5403,VALID,95.5152,VALID,20.3464,VALID,187,VALID,0,
2015-04-22, 07:22:04,VALID,917.915,VALID,0,VALID,98.5327,VALID,95.7301,VALID,20.3448,VALID,189,VALID,0,
2015-04-22, 07:23:04,VALID,917.91,VALID,0,VALID,98.5555,VALID,97.3417,VALID,20.3448,VALID,195,VALID,0,
2015-04-22, 07:24:04,VALID,917.917,VALID,0,VALID,98.5403,VALID,99.3831,VALID,20.4049,VALID,186,VALID,0,
2015-04-22, 07:25:04,VALID,917.905,VALID,0,VALID,98.5479,VALID,102.606,VALID,20.4439,VALID,186,VALID,0,
2015-04-22, 07:26:04,VALID,917.891,VALID,0,VALID,98.5631,VALID,106.797,VALID,20.4049,VALID,166,VALID,0,
2015-04-22, 07:27:04,VALID,917.89,VALID,0,VALID,98.5555,VALID,110.879,VALID,20.4618,VALID,168,VALID,0,
2015-04-22, 07:28:04,VALID,917.863,VALID,0,VALID,98.5555,VALID,113.78,VALID,20.5024,VALID,168,VALID,0,
2015-04-22, 07:29:04,VALID,917.933,VALID,0,VALID,98.5708,VALID,115.392,VALID,20.5009,VALID,164,VALID,0,
2015-04-22, 07:30:04,VALID,917.908,VALID,0,VALID,98.5708,VALID,116.036,VALID,20.5204,VALID,166,VALID,0,
2015-04-22, 07:31:04,VALID,917.915,VALID,0,VALID,98.5708,VALID,116.789,VALID,20.5789,VALID,166,VALID,0,
2015-04-22, 07:32:04,VALID,917.919,VALID,0,VALID,98.5631,VALID,117.326,VALID,20.6374,VALID,157,VALID,0,
2015-04-22, 07:33:04,VALID,917.942,VALID,0,VALID,98.5631,VALID,117.97,VALID,20.6585,VALID,156,VALID,0,
2015-04-22, 07:34:04,VALID,917.945,VALID,0,VALID,98.5936,VALID,118.615,VALID,20.5984,VALID,158,VALID,0,
2015-04-22, 07:35:04,VALID,917.937,VALID,0,VALID,98.6318,VALID,119.26,VALID,20.5984,VALID,168,VALID,0,
2015-04-22, 07:36:04,VALID,917.947,VALID,0,VALID,98.6622,VALID,120.334,VALID,20.5789,VALID,168,VALID,0,
2015-04-22, 07:37:04,VALID,917.955,VALID,0,VALID,98.6851,VALID,121.946,VALID,20.5789,VALID,156,VALID,0,
2015-04-22, 07:38:04,VALID,917.951,VALID,0,VALID,98.708,VALID,123.45,VALID,20.5594,VALID,135,VALID,0,
2015-04-22, 07:39:04,VALID,917.957,VALID,0,VALID,98.7004,VALID,124.847,VALID,20.5999,VALID,156,VALID,0,
2015-04-22, 07:40:04,VALID,917.933,VALID,0,VALID,98.6927,VALID,126.351,VALID,20.6194,VALID,177,VALID,0,
2015-04-22, 07:41:04,VALID,917.968,VALID,0,VALID,98.708,VALID,126.136,VALID,20.6585,VALID,146,VALID,0,
2015-04-22, 07:42:04,VALID,917.961,VALID,0,VALID,98.7004,VALID,124.847,VALID,20.6585,VALID,140,VALID,0,
2015-04-22, 07:43:04,VALID,917.965,VALID,0,VALID,98.6927,VALID,124.309,VALID,20.6764,VALID,137,VALID,0,
2015-04-22, 07:44:04,VALID,917.966,VALID,0,VALID,98.708,VALID,137.847,VALID,20.639,VALID,168,VALID,0,
2015-04-22, 07:45:04,VALID,917.991,VALID,0,VALID,98.7232,VALID,139.996,VALID,20.6585,VALID,151,VALID,0,
2015-04-22, 07:46:04,VALID,918.022,VALID,0,VALID,98.7385,VALID,131.078,VALID,20.6179,VALID,158,VALID,0,
2015-04-22, 07:47:04,VALID,918.028,VALID,0,VALID,98.708,VALID,135.806,VALID,20.678,VALID,145,VALID,0,
2015-04-22, 07:48:04,VALID,918.045,VALID,0,VALID,98.6851,VALID,126.136,VALID,20.6764,VALID,140,VALID,0,
2015-04-22, 07:49:04,VALID,918.023,VALID,0,VALID,98.6546,VALID,125.706,VALID,20.756,VALID,178,VALID,0,
2015-04-22, 07:50:04,VALID,918.035,VALID,0,VALID,98.6546,VALID,125.921,VALID,20.795,VALID,156,VALID,0,
2015-04-22, 07:51:04,VALID,918.06,VALID,0,VALID,98.647,VALID,130.756,VALID,20.795,VALID,148,VALID,0,
2015-04-22, 07:52:04,VALID,918.057,VALID,0,VALID,98.6318,VALID,130.756,VALID,20.8535,VALID,148,VALID,0,
2015-04-22, 07:53:04,VALID,918.068,VALID,0,VALID,98.6394,VALID,126.888,VALID,20.8145,VALID,138,VALID,0,
2015-04-22, 07:54:04,VALID,918.072,VALID,0,VALID,98.6622,VALID,129.359,VALID,20.795,VALID,148,VALID,0,
2015-04-22, 07:55:04,VALID,918.106,VALID,0,VALID,98.6394,VALID,133.227,VALID,20.7934,VALID,172,VALID,0,
2015-04-22, 07:56:04,VALID,918.086,VALID,0,VALID,98.6241,VALID,132.797,VALID,20.834,VALID,195,VALID,0,
2015-04-22, 07:57:04,VALID,918.116,VALID,0,VALID,98.5936,VALID,135.161,VALID,20.8129,VALID,180,VALID,0,
2015-04-22, 07:58:04,VALID,918.092,VALID,0,VALID,98.5784,VALID,139.136,VALID,20.8519,VALID,202,VALID,0,
2015-04-22, 07:59:04,VALID,918.11,VALID,0,VALID,98.5631,VALID,143.541,VALID,20.873,VALID,198,VALID,0,
2015-04-22, 08:00:04,VALID,918.102,VALID,0,VALID,98.5403,VALID,145.153,VALID,20.891,VALID,174,VALID,0,
2015-04-22, 08:01:04,VALID,918.133,VALID,0,VALID,98.5403,VALID,147.517,VALID,20.8714,VALID,168,VALID,0,
2015-04-22, 08:02:04,VALID,918.125,VALID,0,VALID,98.4869,VALID,149.021,VALID,20.8925,VALID,195,VALID,0.171875,
2015-04-22, 08:03:04,VALID,918.121,VALID,0,VALID,98.4335,VALID,149.451,VALID,20.9105,VALID,185,VALID,0,
2015-04-22, 08:04:04,VALID,918.099,VALID,0,VALID,98.3954,VALID,150.095,VALID,20.912,VALID,189,VALID,1.15586,
2015-04-22, 08:05:04,VALID,918.101,VALID,0,VALID,98.3116,VALID,151.599,VALID,20.9105,VALID,167,VALID,0.384375,
2015-04-22, 08:06:04,VALID,918.121,VALID,0,VALID,98.2201,VALID,153.748,VALID,20.9706,VALID,194,VALID,1.00937,
2015-04-22, 08:07:04,VALID,918.125,VALID,0,VALID,98.0905,VALID,154.5,VALID,20.9885,VALID,175,VALID,0.161328,
2015-04-22, 08:08:04,VALID,918.118,VALID,0,VALID,97.9533,VALID,156.649,VALID,20.9885,VALID,196,VALID,0.783203,
2015-04-22, 08:09:04,VALID,918.112,VALID,0,VALID,97.8084,VALID,159.228,VALID,21.008,VALID,188,VALID,1.375,
2015-04-22, 08:10:04,VALID,918.16,VALID,0,VALID,97.656,VALID,161.806,VALID,21.0275,VALID,164,VALID,0,
2015-04-22, 08:11:04,VALID,918.178,VALID,0,VALID,97.5264,VALID,164.815,VALID,21.086,VALID,182,VALID,0.404687,
2015-04-22, 08:12:04,VALID,918.181,VALID,0,VALID,97.3663,VALID,165.889,VALID,21.1055,VALID,184,VALID,0.0449219,
2015-04-22, 08:13:04,VALID,918.204,VALID,0,VALID,97.1986,VALID,165.674,VALID,21.086,VALID,187,VALID,1.88789,
2015-04-22, 08:14:04,VALID,918.225,VALID,0,VALID,96.9851,VALID,167.071,VALID,21.125,VALID,187,VALID,0.113672,
2015-04-22, 08:15:04,VALID,918.231,VALID,0,VALID,96.8021,VALID,168.683,VALID,21.164,VALID,183,VALID,0.316016,
2015-04-22, 08:16:04,VALID,918.221,VALID,0,VALID,96.6497,VALID,170.294,VALID,21.2226,VALID,188,VALID,0.0289063,
2015-04-22, 08:17:04,VALID,918.279,VALID,0,VALID,96.6192,VALID,171.691,VALID,21.2616,VALID,188,VALID,0.996484,
2015-04-22, 08:18:04,VALID,918.299,VALID,0,VALID,96.2914,VALID,173.303,VALID,21.221,VALID,196,VALID,0.0105469,
2015-04-22, 08:19:04,VALID,918.315,VALID,0,VALID,95.8797,VALID,175.129,VALID,21.2421,VALID,199,VALID,0.585547,
2015-04-22, 08:20:04,VALID,918.333,VALID,0,VALID,95.7654,VALID,177.708,VALID,21.3006,VALID,199,VALID,0,
2015-04-22, 08:21:04,VALID,918.394,VALID,0,VALID,95.6739,VALID,180.501,VALID,21.3201,VALID,182,VALID,0,
2015-04-22, 08:22:04,VALID,918.382,VALID,0,VALID,95.5748,VALID,182.972,VALID,21.3786,VALID,182,VALID,0,
2015-04-22, 08:23:04,VALID,918.386,VALID,0,VALID,95.4299,VALID,186.948,VALID,21.3786,VALID,169,VALID,0,
2015-04-22, 08:24:04,VALID,918.374,VALID,0,VALID,95.4223,VALID,189.849,VALID,21.4177,VALID,196,VALID,0.264453,
2015-04-22, 08:25:04,VALID,918.39,VALID,0,VALID,95.4375,VALID,193.394,VALID,21.4355,VALID,185,VALID,0.563281,
2015-04-22, 08:26:04,VALID,918.362,VALID,0,VALID,95.2927,VALID,195.65,VALID,21.4957,VALID,183,VALID,0.108203,
2015-04-22, 08:27:04,VALID,918.38,VALID,0,VALID,95.6434,VALID,195.973,VALID,21.5932,VALID,182,VALID,0.00585938,
2015-04-22, 08:28:04,VALID,918.396,VALID,0,VALID,95.0183,VALID,198.014,VALID,21.5136,VALID,185,VALID,0.203516,
2015-04-22, 08:29:04,VALID,918.423,VALID,0,VALID,95.0564,VALID,198.874,VALID,21.5737,VALID,164,VALID,0,
2015-04-22, 08:30:04,VALID,918.443,VALID,0,VALID,94.7896,VALID,200.7,VALID,21.5737,VALID,177,VALID,0.448828,
2015-04-22, 08:31:04,VALID,918.462,VALID,0,VALID,94.5075,VALID,204.353,VALID,21.5152,VALID,172,VALID,1.04258,
2015-04-22, 08:32:04,VALID,918.46,VALID,0,VALID,94.7972,VALID,207.147,VALID,21.5152,VALID,167,VALID,0.664844,
2015-04-22, 08:33:04,VALID,918.493,VALID,0,VALID,94.8963,VALID,210.8,VALID,21.4957,VALID,195,VALID,1.35625,
2015-04-22, 08:34:04,VALID,918.487,VALID,0,VALID,94.9573,VALID,217.676,VALID,21.5542,VALID,197,VALID,1.06875,
2015-04-22, 08:35:04,VALID,918.513,VALID,0,VALID,95.2775,VALID,222.511,VALID,21.6323,VALID,187,VALID,0,
2015-04-22, 08:37:04,VALID,918.522,VALID,0,VALID,94.5609,VALID,235.404,VALID,21.7103,VALID,191,VALID,0.719922,
2015-04-22, 08:38:04,VALID,918.549,VALID,0,VALID,94.1568,VALID,239.594,VALID,21.7103,VALID,169,VALID,0.00195313,
2015-04-22, 08:39:04,VALID,918.547,VALID,0,VALID,93.9205,VALID,243.784,VALID,21.7493,VALID,208,VALID,0,
2015-04-22, 08:40:04,VALID,918.532,VALID,0,VALID,94.5456,VALID,243.462,VALID,21.7883,VALID,173,VALID,0.198047,
2015-04-22, 08:41:04,VALID,918.557,VALID,0,VALID,94.82,VALID,245.933,VALID,21.9054,VALID,173,VALID,0,
2015-04-22, 08:42:04,VALID,918.517,VALID,0,VALID,94.073,VALID,248.619,VALID,21.9054,VALID,179,VALID,0,
2015-04-22, 08:43:04,VALID,918.539,VALID,0,VALID,93.7451,VALID,249.908,VALID,21.9444,VALID,168,VALID,0,
2015-04-22, 08:44:04,VALID,918.55,VALID,0,VALID,93.0057,VALID,251.412,VALID,21.964,VALID,108,VALID,0,
2015-04-22, 08:45:04,VALID,918.573,VALID,0,VALID,93.2344,VALID,250.66,VALID,22.0437,VALID,203,VALID,0.00351562,
2015-04-22, 08:46:04,VALID,918.562,VALID,0,VALID,92.4263,VALID,254.85,VALID,22.0598,VALID,184,VALID,0,
2015-04-22, 08:47:04,VALID,918.566,VALID,0,VALID,92.7465,VALID,257.107,VALID,22.1786,VALID,187,VALID,0,
2015-04-22, 08:48:04,VALID,918.584,VALID,0,VALID,91.2675,VALID,261.404,VALID,22.2176,VALID,185,VALID,0,
2015-04-22, 08:49:04,VALID,918.558,VALID,0,VALID,90.9397,VALID,268.925,VALID,22.2176,VALID,152,VALID,0,
2015-04-22, 08:50:04,VALID,918.53,VALID,0,VALID,91.4352,VALID,283.43,VALID,22.2354,VALID,141,VALID,0.547656,
2015-04-22, 08:51:04,VALID,918.542,VALID,0,VALID,88.4774,VALID,298.794,VALID,22.1591,VALID,128,VALID,0.887891,
2015-04-22, 08:52:04,VALID,918.517,VALID,0,VALID,89.9639,VALID,318.133,VALID,22.1396,VALID,178,VALID,0.285156,
2015-04-22, 08:53:04,VALID,918.516,VALID,0,VALID,89.4989,VALID,406.02,VALID,22.1379,VALID,194,VALID,0.0121094,
2015-04-22, 08:54:04,VALID,918.545,VALID,0,VALID,90.6958,VALID,459.311,VALID,22.2567,VALID,140,VALID,0.0617188,
2015-04-22, 08:55:04,VALID,918.509,VALID,0,VALID,88.7594,VALID,473.063,VALID,22.3525,VALID,145,VALID,1.18672,
2015-04-22, 08:56:04,VALID,918.521,VALID,0,VALID,88.3097,VALID,480.799,VALID,22.4128,VALID,147,VALID,0.313672,
2015-04-22, 08:57:04,VALID,918.519,VALID,0,VALID,88.4774,VALID,439.649,VALID,22.5689,VALID,148,VALID,0,
2015-04-22, 08:58:04,VALID,918.494,VALID,0,VALID,88.9348,VALID,458.237,VALID,22.7038,VALID,138,VALID,0,
2015-04-22, 08:59:04,VALID,918.507,VALID,0,VALID,86.5486,VALID,395.491,VALID,22.7038,VALID,157,VALID,1.58164,
2015-04-22, 09:00:04,VALID,918.485,VALID,0,VALID,86.0074,VALID,495.411,VALID,22.7038,VALID,171,VALID,1.82734,
2015-04-22, 09:01:04,VALID,918.525,VALID,0,VALID,85.8854,VALID,509.593,VALID,22.8014,VALID,155,VALID,0.0148437,
2015-04-22, 09:02:04,VALID,918.531,VALID,0,VALID,85.3746,VALID,503.362,VALID,22.8794,VALID,146,VALID,0.766406,
2015-04-22, 09:03:04,VALID,918.547,VALID,0,VALID,85.5195,VALID,485.204,VALID,22.8989,VALID,164,VALID,0.832812,
2015-04-22, 09:04:04,VALID,918.53,VALID,0,VALID,85.3213,VALID,492.403,VALID,22.9965,VALID,150,VALID,0.65625,
2015-04-22, 09:05:04,VALID,918.566,VALID,0,VALID,84.9935,VALID,516.792,VALID,23.1136,VALID,161,VALID,0.771094,
2015-04-22, 09:06:04,VALID,918.564,VALID,0,VALID,83.3163,VALID,511.527,VALID,23.1917,VALID,175,VALID,1.57227,
2015-04-22, 09:07:04,VALID,918.613,VALID,0,VALID,82.9961,VALID,523.668,VALID,23.2485,VALID,191,VALID,0.381641,
2015-04-22, 09:08:04,VALID,918.603,VALID,0,VALID,83.9872,VALID,529.255,VALID,23.465,VALID,183,VALID,0.00195313,
2015-04-22, 09:09:04,VALID,918.612,VALID,0,VALID,82.1957,VALID,532.156,VALID,23.5412,VALID,213,VALID,0.248437,
2015-04-22, 09:10:04,VALID,918.645,VALID,0,VALID,82.8513,VALID,532.586,VALID,23.6584,VALID,188,VALID,0,
2015-04-22, 09:11:04,VALID,918.711,VALID,0,VALID,83.1334,VALID,472.526,VALID,23.9121,VALID,185,VALID,0,
2015-04-22, 09:12:04,VALID,918.738,VALID,0,VALID,82.7903,VALID,488.427,VALID,23.9707,VALID,172,VALID,0.034375,
2015-04-22, 09:13:04,VALID,918.732,VALID,0,VALID,81.3571,VALID,516.577,VALID,24.0506,VALID,173,VALID,0.00195313,
2015-04-22, 09:14:04,VALID,918.719,VALID,0,VALID,80.3508,VALID,509.701,VALID,24.0683,VALID,168,VALID,0.021875,
2015-04-22, 09:15:04,VALID,918.738,VALID,0,VALID,80.9607,VALID,487.783,VALID,24.1287,VALID,187,VALID,0.00195313,
2015-04-22, 09:16:04,VALID,918.735,VALID,0,VALID,80.1907,VALID,500.568,VALID,24.3044,VALID,190,VALID,0,
2015-04-22, 09:17:04,VALID,918.755,VALID,0,VALID,79.6266,VALID,468.873,VALID,24.3806,VALID,141,VALID,0,
2015-04-22, 09:18:04,VALID,918.737,VALID,0,VALID,79.6495,VALID,534.09,VALID,24.4411,VALID,150,VALID,0.192578,
2015-04-22, 09:19:04,VALID,918.734,VALID,0,VALID,79.3826,VALID,556.115,VALID,24.3611,VALID,165,VALID,0.449609,
2015-04-22, 09:20:04,VALID,918.696,VALID,0,VALID,77.0117,VALID,553.644,VALID,24.2245,VALID,163,VALID,0.971484,
2015-04-22, 09:21:04,VALID,918.679,VALID,0,VALID,79.4817,VALID,612.092,VALID,24.0878,VALID,160,VALID,0.1125,
2015-04-22, 09:22:04,VALID,918.67,VALID,0,VALID,81.5401,VALID,535.057,VALID,24.2049,VALID,138,VALID,0,
2015-04-22, 09:23:04,VALID,918.643,VALID,0,VALID,80.3889,VALID,595.331,VALID,24.4606,VALID,172,VALID,0,
2015-04-22, 09:24:04,VALID,918.65,VALID,0,VALID,78.4297,VALID,660.011,VALID,24.5564,VALID,175,VALID,0.385156,
2015-04-22, 09:25:04,VALID,918.626,VALID,0,VALID,77.8503,VALID,506.907,VALID,24.5155,VALID,159,VALID,0,
2015-04-22, 09:26:04,VALID,918.617,VALID,0,VALID,79.9391,VALID,459.741,VALID,24.5954,VALID,150,VALID,0.571484,
2015-04-22, 09:27:04,VALID,918.621,VALID,0,VALID,77.0346,VALID,464.576,VALID,24.4959,VALID,139,VALID,0.355469,
2015-04-22, 09:28:04,VALID,918.603,VALID,0,VALID,78.2467,VALID,423.533,VALID,24.4197,VALID,98,VALID,0,
2015-04-22, 09:29:04,VALID,918.639,VALID,0,VALID,78.8642,VALID,521.412,VALID,24.4178,VALID,161,VALID,0.0460938,
2015-04-22, 09:30:04,VALID,918.602,VALID,0,VALID,79.0167,VALID,668.069,VALID,24.5545,VALID,195,VALID,0.212109,
2015-04-22, 09:31:04,VALID,918.604,VALID,0,VALID,77.1718,VALID,642.928,VALID,24.7516,VALID,189,VALID,1.06953,
2015-04-22, 09:32:04,VALID,918.633,VALID,0,VALID,76.9965,VALID,643.358,VALID,24.9255,VALID,191,VALID,0,
2015-04-22, 09:33:04,VALID,918.627,VALID,0,VALID,76.4705,VALID,645.077,VALID,25.0426,VALID,138,VALID,0,
2015-04-22, 09:34:04,VALID,918.625,VALID,0,VALID,76.1579,VALID,649.697,VALID,25.2379,VALID,199,VALID,0,
2015-04-22, 09:35:04,VALID,918.633,VALID,0,VALID,74.8162,VALID,625.415,VALID,25.4136,VALID,196,VALID,0.0148437,
2015-04-22, 09:36:04,VALID,918.66,VALID,0,VALID,75.1593,VALID,690.632,VALID,25.5113,VALID,161,VALID,0.2625,
2015-04-22, 09:37:04,VALID,918.641,VALID,0,VALID,75.266,VALID,658.077,VALID,25.6109,VALID,158,VALID,0.0140625,
2015-04-22, 09:38:04,VALID,918.65,VALID,0,VALID,75.3194,VALID,661.73,VALID,25.7671,VALID,120,VALID,0,
2015-04-22, 09:39:04,VALID,918.683,VALID,0,VALID,73.2153,VALID,535.809,VALID,25.8042,VALID,96,VALID,0,
2015-04-22, 09:40:04,VALID,918.702,VALID,0,VALID,72.3767,VALID,471.022,VALID,25.8628,VALID,189,VALID,0.526563,
2015-04-22, 09:41:04,VALID,918.715,VALID,0,VALID,73.2915,VALID,279.992,VALID,25.5718,VALID,171,VALID,1.1793,
2015-04-22, 09:42:04,VALID,918.706,VALID,0,VALID,72.3767,VALID,231.106,VALID,25.4527,VALID,189,VALID,0.250781,
2015-04-22, 09:43:04,VALID,918.692,VALID,0,VALID,73.3754,VALID,246.9,VALID,25.3941,VALID,176,VALID,0,
2015-04-22, 09:44:04,VALID,918.713,VALID,0,VALID,73.9776,VALID,207.469,VALID,25.1012,VALID,169,VALID,0.432031,
2015-04-22, 09:45:04,VALID,918.71,VALID,0,VALID,75.144,VALID,213.593,VALID,25.0036,VALID,170,VALID,0,
2015-04-22, 09:46:04,VALID,918.708,VALID,0,VALID,75.7234,VALID,299.976,VALID,25.0407,VALID,170,VALID,0,
2015-04-22, 09:47:04,VALID,918.738,VALID,0,VALID,75.6853,VALID,341.663,VALID,25.0621,VALID,169,VALID,0,
2015-04-22, 09:48:04,VALID,918.747,VALID,0,VALID,75.1211,VALID,297.612,VALID,25.0817,VALID,170,VALID,0,
2015-04-22, 09:49:04,VALID,918.737,VALID,0,VALID,74.8086,VALID,274.297,VALID,25.1207,VALID,170,VALID,0,
2015-04-22, 09:50:04,VALID,918.758,VALID,0,VALID,75.8377,VALID,255.925,VALID,25.1988,VALID,183,VALID,0,
2015-04-22, 09:51:04,VALID,918.773,VALID,0,VALID,75.5785,VALID,247.33,VALID,25.2769,VALID,173,VALID,0,
2015-04-22, 09:52:04,VALID,918.766,VALID,0,VALID,75.3498,VALID,232.825,VALID,25.3531,VALID,173,VALID,0,
2015-04-22, 09:53:04,VALID,918.793,VALID,0,VALID,75.0144,VALID,237.767,VALID,25.4722,VALID,173,VALID,0,
2015-04-22, 09:54:04,VALID,918.791,VALID,0,VALID,75.1669,VALID,257.966,VALID,25.4917,VALID,194,VALID,0,
2015-04-22, 09:55:04,VALID,918.793,VALID,0,VALID,71.805,VALID,368.523,VALID,25.5113,VALID,221,VALID,0.773438,
2015-04-22, 09:56:04,VALID,918.801,VALID,0,VALID,70.7834,VALID,256.355,VALID,25.4527,VALID,226,VALID,0,
2015-04-22, 09:57:04,VALID,918.78,VALID,0,VALID,72.1633,VALID,265.809,VALID,25.355,VALID,226,VALID,0,
2015-04-22, 09:58:04,VALID,918.82,VALID,0,VALID,72.0413,VALID,291.38,VALID,25.2379,VALID,226,VALID,0,
2015-04-22, 09:59:04,VALID,918.823,VALID,0,VALID,74.2368,VALID,291.595,VALID,25.1598,VALID,226,VALID,0.391016,
2015-04-22, 10:00:04,VALID,918.812,VALID,0,VALID,74.3664,VALID,277.843,VALID,25.0817,VALID,187,VALID,0,
2015-04-22, 10:01:04,VALID,918.82,VALID,0,VALID,74.9077,VALID,272.363,VALID,25.1793,VALID,187,VALID,0,
2015-04-22, 10:02:04,VALID,918.813,VALID,0,VALID,73.9471,VALID,274.297,VALID,25.2945,VALID,200,VALID,0,
2015-04-22, 10:03:04,VALID,918.836,VALID,0,VALID,73.5812,VALID,285.901,VALID,25.2945,VALID,226,VALID,0,
2015-04-22, 10:04:04,VALID,918.821,VALID,0,VALID,74.7705,VALID,310.075,VALID,25.3336,VALID,226,VALID,0,
2015-04-22, 10:05:04,VALID,918.823,VALID,0,VALID,72.7655,VALID,309.645,VALID,25.2769,VALID,226,VALID,0,
2015-04-22, 10:06:04,VALID,918.827,VALID,0,VALID,72.9866,VALID,297.397,VALID,25.2379,VALID,226,VALID,0,
2015-04-22, 10:07:04,VALID,918.813,VALID,0,VALID,73.9166,VALID,298.364,VALID,25.2965,VALID,226,VALID,0,
2015-04-22, 10:08:04,VALID,918.815,VALID,0,VALID,73.2077,VALID,312.117,VALID,25.316,VALID,226,VALID,0,
2015-04-22, 10:09:04,VALID,918.793,VALID,0,VALID,74.0539,VALID,331.886,VALID,25.3746,VALID,226,VALID,0,
2015-04-22, 10:10:04,VALID,918.807,VALID,0,VALID,73.7032,VALID,652.275,VALID,25.4917,VALID,226,VALID,0,
2015-04-22, 10:11:04,VALID,918.807,VALID,0,VALID,74.7019,VALID,904.44,VALID,25.648,VALID,226,VALID,0,
2015-04-22, 10:12:04,VALID,918.801,VALID,0,VALID,76.3028,VALID,910.994,VALID,25.687,VALID,245,VALID,0.00820312,
2015-04-22, 10:13:04,VALID,918.804,VALID,0,VALID,76.4629,VALID,931.837,VALID,25.8237,VALID,258,VALID,0,
2015-04-22, 10:14:04,VALID,918.799,VALID,0,VALID,76.9203,VALID,908.307,VALID,25.9214,VALID,253,VALID,0,
2015-04-22, 10:15:04,VALID,918.815,VALID,0,VALID,75.1669,VALID,936.135,VALID,25.9409,VALID,247,VALID,1.08594,
2015-04-22, 10:16:04,VALID,918.791,VALID,0,VALID,74.1758,VALID,913.787,VALID,25.9019,VALID,252,VALID,0.800391,
2015-04-22, 10:17:04,VALID,918.791,VALID,0,VALID,75.1364,VALID,607.472,VALID,25.9585,VALID,220,VALID,0,
2015-04-22, 10:18:04,VALID,918.782,VALID,0,VALID,74.0005,VALID,338.655,VALID,26.1362,VALID,268,VALID,0,
2015-04-22, 10:19:04,VALID,918.738,VALID,0,VALID,73.444,VALID,353.159,VALID,26.1753,VALID,268,VALID,0,
2015-04-22, 10:20:04,VALID,918.74,VALID,0,VALID,73.444,VALID,331.456,VALID,26.1342,VALID,263,VALID,0.552734,
2015-04-22, 10:21:04,VALID,918.735,VALID,0,VALID,74.031,VALID,316.629,VALID,25.8999,VALID,247,VALID,0,
2015-04-22, 10:22:04,VALID,918.726,VALID,0,VALID,76.2723,VALID,250.338,VALID,25.8218,VALID,255,VALID,0.0609375,
2015-04-22, 10:23:04,VALID,918.734,VALID,0,VALID,77.0499,VALID,232.288,VALID,25.8042,VALID,244,VALID,0,
2015-04-22, 10:24:04,VALID,918.707,VALID,0,VALID,75.9445,VALID,220.254,VALID,25.7456,VALID,257,VALID,0,
2015-04-22, 10:25:04,VALID,918.696,VALID,0,VALID,76.0055,VALID,210.8,VALID,25.5289,VALID,266,VALID,0,
2015-04-22, 10:26:04,VALID,918.674,VALID,0,VALID,77.431,VALID,205.857,VALID,25.3336,VALID,247,VALID,0,
2015-04-22, 10:27:04,VALID,918.632,VALID,0,VALID,78.7651,VALID,197.047,VALID,25.1383,VALID,247,VALID,0,
2015-04-22, 10:28:04,VALID,918.644,VALID,0,VALID,79.0396,VALID,192.535,VALID,24.9626,VALID,243,VALID,0.456641,
2015-04-22, 10:29:04,VALID,918.625,VALID,0,VALID,78.1858,VALID,196.617,VALID,24.9255,VALID,257,VALID,1.31875,
2015-04-22, 10:30:04,VALID,918.628,VALID,0,VALID,77.9571,VALID,203.601,VALID,24.7674,VALID,268,VALID,0.265234,
2015-04-22, 10:31:04,VALID,918.598,VALID,0,VALID,78.5898,VALID,204.783,VALID,24.7302,VALID,250,VALID,0.0734375,
2015-04-22, 10:32:04,VALID,918.616,VALID,0,VALID,79.192,VALID,196.295,VALID,24.6502,VALID,246,VALID,0,
2015-04-22, 10:33:04,VALID,918.584,VALID,0,VALID,80.8006,VALID,182.543,VALID,24.6307,VALID,252,VALID,0.0539063,
2015-04-22, 10:34:04,VALID,918.575,VALID,0,VALID,80.8997,VALID,178.352,VALID,24.5331,VALID,253,VALID,0.974609,
2015-04-22, 10:35:04,VALID,918.563,VALID,0,VALID,80.3889,VALID,179.856,VALID,24.4941,VALID,262,VALID,0.0472656,
2015-04-22, 10:36:04,VALID,918.558,VALID,0,VALID,81.1589,VALID,181.683,VALID,24.4941,VALID,248,VALID,0.207031,
2015-04-22, 10:37:04,VALID,918.571,VALID,0,VALID,82.615,VALID,188.344,VALID,24.4959,VALID,248,VALID,0,
2015-04-22, 10:38:04,VALID,918.553,VALID,0,VALID,83.6212,VALID,214.775,VALID,24.5136,VALID,248,VALID,0,
2015-04-22, 10:39:04,VALID,918.52,VALID,0,VALID,81.2504,VALID,241.205,VALID,24.574,VALID,248,VALID,0,
2015-04-22, 10:40:04,VALID,918.505,VALID,0,VALID,81.5324,VALID,271.611,VALID,24.6912,VALID,248,VALID,0,
2015-04-22, 10:41:04,VALID,918.502,VALID,0,VALID,80.6405,VALID,282.033,VALID,24.8474,VALID,248,VALID,0,
2015-04-22, 10:42:04,VALID,918.516,VALID,0,VALID,77.2938,VALID,291.703,VALID,25.0231,VALID,248,VALID,0,
2015-04-22, 10:43:04,VALID,918.519,VALID,0,VALID,74.4732,VALID,296.645,VALID,25.1402,VALID,279,VALID,0,
2015-04-22, 10:44:04,VALID,918.523,VALID,0,VALID,75.4718,VALID,309.216,VALID,25.1207,VALID,282,VALID,0,
2015-04-22, 10:45:04,VALID,918.504,VALID,0,VALID,76.9279,VALID,339.084,VALID,25.2574,VALID,256,VALID,0,
2015-04-22, 10:46:04,VALID,918.502,VALID,0,VALID,74.496,VALID,379.052,VALID,25.3355,VALID,236,VALID,0,
2015-04-22, 10:47:04,VALID,918.481,VALID,0,VALID,73.8785,VALID,350.043,VALID,25.4331,VALID,260,VALID,0,
2015-04-22, 10:48:04,VALID,918.43,VALID,0,VALID,74.8924,VALID,303.629,VALID,25.4917,VALID,234,VALID,0,
2015-04-22, 10:49:04,VALID,918.407,VALID,0,VALID,75.2965,VALID,287.942,VALID,25.5698,VALID,237,VALID,0,
2015-04-22, 10:50:04,VALID,918.385,VALID,0,VALID,76.9355,VALID,276.016,VALID,25.7261,VALID,358,VALID,0,